This is the latest recevied weather packets stored in our database for station/object DL2MWB-13. If no packets are shown the sender has not sent any weather packets the latest 1 day(s).
| Time | Temp. | Humidity | Pressure | Rain* | Wind** | Luminosity | Snow |
|---|---|---|---|---|---|---|---|
| 1778066407 | 16.67° C | 52% | 1012 hPa | - | - | - | - |
| 1778065200 | 16.67° C | 54% | 1012 hPa | - | - | - | - |
| 1778063993 | 16.11° C | 54% | 1012 hPa | - | - | - | - |
| 1778063389 | 16.67° C | 52% | 1012 hPa | - | - | - | - |
| 1778062786 | 15.56° C | 54% | 1012 hPa | - | - | - | - |
| 1778062182 | 15.56° C | 55% | 1012 hPa | - | - | - | - |
| 1778061579 | 15.56° C | 55% | 1013 hPa | - | - | - | - |
| 1778060372 | 15.56° C | 55% | 1013 hPa | - | - | - | - |
| 1778059165 | 15° C | 57% | 1013 hPa | - | - | - | - |
| 1778057958 | 15° C | 58% | 1013 hPa | - | - | - | - |
| 1778057354 | 14.44° C | 59% | 1013 hPa | - | - | - | - |
| 1778056751 | 14.44° C | 60% | 1013 hPa | - | - | - | - |
| 1778055545 | 14.44° C | 61% | 1013 hPa | - | - | - | - |
| 1778054940 | 13.89° C | 61% | 1013 hPa | - | - | - | - |
| 1778054337 | 13.89° C | 62% | 1013 hPa | - | - | - | - |
| 1778053130 | 13.89° C | 62% | 1013 hPa | - | - | - | - |
| 1778051923 | 13.89° C | 62% | 1013 hPa | - | - | - | - |
| 1778050716 | 13.33° C | 65% | 1013 hPa | - | - | - | - |
| 1778049509 | 13.33° C | 67% | 1013 hPa | - | - | - | - |
| 1778048905 | 13.33° C | 67% | 1013 hPa | - | - | - | - |
| 1778048302 | 13.33° C | 68% | 1013 hPa | - | - | - | - |
| 1778047095 | 12.78° C | 67% | 1013 hPa | - | - | - | - |
| 1778045888 | 12.22° C | 68% | 1013 hPa | - | - | - | - |
| 1778044681 | 12.22° C | 69% | 1013 hPa | - | - | - | - |
| 1778044077 | 11.67° C | 69% | 1013 hPa | - | - | - | - |
* Rain since midnight (hover to see other rain measurements)
** Current wind speed in m/s (hover to see current wind gust speed)